H1 CPF 2 NER 2021 6 6 9 157 01 glonass141 H2 1908801 9141 44850 2021 6 6 0 0 0 2021 6 9 23 45 0 900 1 1 0 0 0 1 H9 10 0 59371 0.00000 0 10616921.156 -3144744.304 23011093.035 10 0 59371 900.00000 0 12090351.971 -764017.081 22479120.489 10 0 59371 1800.00000 0 13681914.135 1426787.505 21512012.089 10 0 59371 2700.00000 0 15339619.771 3382514.101 20128404.576 10 0 59371 3600.00000 0 17005222.322 5068777.728 18354981.025 10 0 59371 4500.00000 0 18616584.010 6463146.385 16225968.530 10 0 59371 5400.00000 0 20110227.415 7555823.897 13782491.532 10 0 59371 6300.00000 0 21423966.021 8349804.881 11071791.631 10 0 59371 7200.00000 0 22499504.617 8860495.409 8146327.474 10 0 59371 8100.00000 0 23284901.036 9114815.057 5062770.713 10 0 59371 9000.00000 0 23736785.841 9149817.722 1880916.284 10 0 59371 9900.00000 0 23822245.906 9010888.748 -1337472.527 10 0 59371 10800.00000 0 23520291.482 8749594.146 -4529862.202 10 0 59371 11700.00000 0 22822843.302 8421272.645 -7634166.953 10 0 59371 12600.00000 0 21735196.277 8082472.649 -10589962.294 10 0 59371 13500.00000 0 20275938.282 7788343.186 -13339669.868 10 0 59371 14400.00000 0 18476325.515 7590090.307 -15829689.505 10 0 59371 15300.00000 0 16379139.105 7532607.924 -18011455.283 10 0 59371 16200.00000 0 14037069.682 7652384.882 -19842393.980 10 0 59371 17100.00000 0 11510696.781 7975778.503 -21286766.253 10 0 59371 18000.00000 0 8866147.349 8517729.179 -22316373.215 10 0 59371 18900.00000 0 6172531.226 9280971.905 -22911114.020 10 0 59371 19800.00000 0 3499260.947 10255779.332 -23059383.111 10 0 59371 20700.00000 0 913368.205 11420248.186 -22758299.036 10 0 59371 21600.00000 0 -1523070.723 12741117.713 -22013760.341 10 0 59371 22500.00000 0 -3755293.028 14175086.006 -20840327.430 10 0 59371 23400.00000 0 -5737892.480 15670568.751 -19260932.954 10 0 59371 24300.00000 0 -7436462.854 17169826.077 -17306426.688 10 0 59371 25200.00000 0 -8828773.904 18611367.440 -15014964.265 10 0 59371 26100.00000 0 -9905432.070 19932532.598 -12431252.351 10 0 59371 27000.00000 0 -10670000.075 21072139.298 -9605665.740 10 0 59371 27900.00000 0 -11138572.637 21973085.547 -6593254.438 10 0 59371 28800.00000 0 -11338828.501 22584796.379 -3452661.130 10 0 59371 29700.00000 0 -11308601.232 22865411.862 -244971.071 10 0 59371 30600.00000 0 -11094031.423 22783624.312 2967482.323 10 0 59371 31500.00000 0 -10747380.370 22320087.770 6122332.080 10 0 59371 32400.00000 0 -10324599.265 21468341.141 9158388.394 10 0 59371 33300.00000 0 -9882757.733 20235207.014 12016821.786 10 0 59371 34200.00000 0 -9477440.905 18640650.384 14642295.850 10 0 59371 35100.00000 0 -9160224.929 16717103.967 16984028.282 10 0 59371 36000.00000 0 -8976336.934 14508288.908 18996760.634 10 0 59371 36900.00000 0 -8962597.233 12067580.394 20641619.233 10 0 59371 37800.00000 0 -9145729.340 9455986.025 21886852.158 10 0 59371 38700.00000 0 -9541107.878 6739820.336 22708429.559 10 0 59371 39600.00000 0 -10151996.101 3988170.923 23090497.107 10 0 59371 40500.00000 0 -10969304.619 1270259.720 23025675.058 10 0 59371 41400.00000 0 -11971881.446 -1347193.130 22515197.948 10 0 59371 42300.00000 0 -13127321.795 -3802495.459 21568892.555 10 0 59371 43200.00000 0 -14393264.783 -6041296.683 20204994.432 10 0 59371 44100.00000 0 -15719124.248 -8018594.698 18449805.850 10 0 59371 45000.00000 0 -17048182.891 -9700354.179 16337200.746 10 0 59371 45900.00000 0 -18319963.821 -11064670.130 13907984.809 10 0 59371 46800.00000 0 -19472781.696 -12102428.887 11209121.504 10 0 59371 47700.00000 0 -20446367.679 -12817439.171 8292837.468 10 0 59371 48600.00000 0 -21184458.761 -13226027.619 5215623.158 10 0 59371 49500.00000 0 -21637242.748 -13356115.410 2037146.879 10 0 59371 50400.00000 0 -21763555.581 -13245814.308 -1180897.414 10 0 59371 51300.00000 0 -21532737.385 -12941600.828 -4375986.606 10 0 59371 52200.00000 0 -20926067.477 -12496145.285 -7485985.921 10 0 59371 53100.00000 0 -19937715.940 -11965887.436 -10450363.209 10 0 59371 54000.00000 0 -18575169.524 -11408461.541 -13211375.676 10 0 59371 54900.00000 0 -16859111.776 -10880080.476 -15715205.001 10 0 59371 55800.00000 0 -14822760.454 -10432990.566 -17913017.554 10 0 59371 56700.00000 0 -12510688.367 -10113106.056 -19761928.041 10 0 59371 57600.00000 0 -9977175.743 -9957924.662 -21225846.776 10 0 59371 58500.00000 0 -7284162.340 -9994813.711 -22276193.171 10 0 59371 59400.00000 0 -4498884.494 -10239740.610 -22892460.891 10 0 59371 60300.00000 0 -1691295.689 -10696502.387 -23062623.166 10 0 59371 61200.00000 0 1068621.428 -11356487.675 -22783370.037 10 0 59371 62100.00000 0 3713539.245 -12198981.756 -22060172.797 10 0 59371 63000.00000 0 6181353.436 -13192002.001 -20907174.409 10 0 59371 63900.00000 0 8417527.986 -14293628.377 -19346908.199 10 0 59371 64800.00000 0 10377119.424 -15453772.498 -17409850.672 10 0 59371 65700.00000 0 12026396.349 -16616309.976 -15133817.620 10 0 59371 66600.00000 0 13343987.554 -17721485.329 -12563215.951 10 0 59371 67500.00000 0 14321512.225 -18708487.100 -9748166.618 10 0 59371 68400.00000 0 14963667.753 -19518083.724 -6743516.580 10 0 59371 69300.00000 0 15287773.667 -20095208.197 -3607760.099 10 0 59371 70200.00000 0 15322793.329 -20391382.018 -401891.357 10 0 59371 71100.00000 0 15107877.044 -20366875.948 2811788.391 10 0 59371 72000.00000 0 14690490.219 -19992516.603 5970885.026 10 0 59371 72900.00000 0 14124207.497 -19251063.130 9014123.070 10 0 59371 73800.00000 0 13466267.417 -18138096.637 11882530.759 10 0 59371 74700.00000 0 12774991.634 -16662385.698 14520575.783 10 0 59371 75600.00000 0 12107177.872 -14845713.264 16877230.309 10 0 59371 76500.00000 0 11515576.202 -12722172.713 18906945.627 10 0 59371 77400.00000 0 11046554.146 -10336962.682 20570518.761 10 0 59371 78300.00000 0 10738047.772 -7744730.753 21835835.808 10 0 59371 79200.00000 0 10617883.607 -5007534.227 22678479.164 10 0 59371 80100.00000 0 10702540.643 -2192501.699 23082188.328 10 0 59371 81000.00000 0 10996403.416 630709.108 23039166.597 10 0 59371 81900.00000 0 11491536.900 3392553.752 22550228.586 10 0 59371 82800.00000 0 12167992.603 6026236.181 21624786.052 10 0 59371 83700.00000 0 12994633.497 8470229.473 20280672.218 10 0 59371 84600.00000 0 13930444.187 10670579.665 18543807.295 10 0 59371 85500.00000 0 14926272.717 12582898.625 16447710.676 10 0 59372 0.00000 0 15926932.491 14173964.519 14032867.873 10 0 59372 900.00000 0 16873577.593 15422863.883 11345962.495 10 0 59372 1800.00000 0 17706253.228 16321628.543 8438987.508 10 0 59372 2700.00000 0 18366514.486 16875339.618 5368250.305 10 0 59372 3600.00000 0 18800004.300 17101695.291 2193290.581 10 0 59372 4500.00000 0 18958881.223 17030058.854 -1024269.129 10 0 59372 5400.00000 0 18803994.153 16700027.050 -4221918.271 10 0 59372 6300.00000 0 18306710.809 16159578.389 -7337475.258 10 0 59372 7200.00000 0 17450321.007 15462879.375 -10310302.413 10 0 59372 8100.00000 0 16230953.410 14667841.282 -13082494.558 10 0 59372 9000.00000 0 14657964.756 13833531.168 -15600017.159 10 0 59372 9900.00000 0 12753782.991 13017547.202 -17813770.683 10 0 59372 10800.00000 0 10553208.776 12273470.234 -19680559.431 10 0 59372 11700.00000 0 8102202.944 11648500.417 -21163944.921 10 0 59372 12600.00000 0 5456209.468 11181379.893 -22234966.285 10 0 59372 13500.00000 0 2678083.232 10900690.389 -22872712.981 10 0 59372 14400.00000 0 -164291.272 10823598.513 -23064738.132 10 0 59372 15300.00000 0 -3000590.915 10955102.389 -22807304.119 10 0 59372 16200.00000 0 -5760746.389 11287811.813 -22105455.530 10 0 59372 17100.00000 0 -8377623.679 11802271.216 -20972918.032 10 0 59372 18000.00000 0 -10789582.444 12467811.558 -19431825.351 10 0 59372 18900.00000 0 -12942804.649 13243894.574 -17512280.014 10 0 59372 19800.00000 0 -14793296.569 14081891.847 -15251756.842 10 0 59372 20700.00000 0 -16308481.092 14927222.534 -12694361.514 10 0 59372 21600.00000 0 -17468314.948 15721758.397 -9889959.383 10 0 59372 22500.00000 0 -18265885.558 16406393.440 -6893192.373 10 0 59372 23400.00000 0 -18707464.410 16923668.600 -3762404.181 10 0 59372 24300.00000 0 -18812016.937 17220339.846 -558495.639 10 0 59372 25200.00000 0 -18610191.867 17249780.665 2656266.526 10 0 59372 26100.00000 0 -18142834.888 16974117.330 5819463.508 10 0 59372 27000.00000 0 -17459091.328 16366006.969 8869736.690 10 0 59372 27900.00000 0 -16614179.523 15409983.828 11747974.616 10 0 59372 28800.00000 0 -15666929.888 14103317.625 14398451.701 10 0 59372 29700.00000 0 -14677193.942 12456348.469 16769897.194 10 0 59372 30600.00000 0 -13703232.351 10492284.695 18816474.675 10 0 59372 31500.00000 0 -12799191.252 8246472.363 20498654.287 10 0 59372 32400.00000 0 -12012771.873 5765166.685 21783962.375 10 0 59372 33300.00000 0 -11383189.899 3103856.008 22647595.571 10 0 59372 34200.00000 0 -10939508.771 325207.039 23072888.873 10 0 59372 35100.00000 0 -10699415.359 -2503284.830 23051629.944 10 0 59372 36000.00000 0 -10668488.240 -5311844.513 22584214.401 10 0 59372 36900.00000 0 -10839988.538 -8031061.816 21679639.470 10 0 59372 37800.00000 0 -11195181.946 -10594524.189 20355336.070 10 0 59372 38700.00000 0 -11704178.756 -12941330.546 18636841.903 10 0 59372 39600.00000 0 -12327257.513 -15018383.529 16557320.895 10 0 59372 40500.00000 0 -13016617.900 -16782366.454 14156936.876 10 0 59372 41400.00000 0 -13718490.514 -18201323.637 11482092.033 10 0 59372 42300.00000 0 -14375516.113 -19255778.606 8584543.359 10 0 59372 43200.00000 0 -14929295.189 -19939343.555 5520412.698 10 0 59372 44100.00000 0 -15323001.060 -20258794.161 2349108.369 10 0 59372 45000.00000 0 -15503946.336 -20233605.954 -867821.498 10 0 59372 45900.00000 0 -15425993.930 -19894971.044 -4067882.087 10 0 59372 46800.00000 0 -15051709.679 -19284335.874 -7188848.315 10 0 59372 47700.00000 0 -14354164.031 -18451521.091 -10169980.401 10 0 59372 48600.00000 0 -13318304.693 -17452502.609 -12953214.242 10 0 59372 49500.00000 0 -11941839.989 -16346947.561 -15484302.503 10 0 59372 50400.00000 0 -10235593.323 -15195609.561 -17713883.006 10 0 59372 51300.00000 0 -8223311.516 -14057693.946 -19598452.629 10 0 59372 52200.00000 0 -5940932.989 -12988305.021 -21101226.671 10 0 59372 53100.00000 0 -3435344.812 -12036084.050 -22192866.048 10 0 59372 54000.00000 0 -762679.436 -11241138.508 -22852057.466 10 0 59372 54900.00000 0 2013778.555 -10633350.710 -23065934.767 10 0 59372 55800.00000 0 4825988.511 -10231137.678 -22830332.870 10 0 59372 56700.00000 0 7603752.744 -10040714.749 -22149869.237 10 0 59372 57600.00000 0 10277409.935 -10055893.838 -21037851.283 10 0 59372 58500.00000 0 12780510.302 -10258424.439 -19516011.685 10 0 59372 59400.00000 0 15052360.743 -10618862.152 -17614077.087 10 0 59372 60300.00000 0 17040333.784 -11097927.036 -15369179.032 10 0 59372 61200.00000 0 18701844.080 -11648293.162 -12825119.269 10 0 59372 62100.00000 0 20005910.574 -12216732.387 -10031504.494 10 0 59372 63000.00000 0 20934240.043 -12746520.358 -7042768.258 10 0 59372 63900.00000 0 21481788.075 -13180001.752 -3917100.118 10 0 59372 64800.00000 0 21656775.891 -13461205.151 -715303.888 10 0 59372 65700.00000 0 21480164.389 -13538396.201 2500391.899 10 0 59372 66600.00000 0 20984609.744 -13366460.638 5667547.270 10 0 59372 67500.00000 0 20212946.611 -12909016.349 8724723.722 10 0 59372 68400.00000 0 19216264.625 -12140165.481 11612672.984 10 0 59372 69300.00000 0 18051660.526 -11045813.109 14275478.624 10 0 59372 70200.00000 0 16779761.368 -9624497.442 16661628.924 10 0 59372 71100.00000 0 15462123.142 -7887697.077 18725001.205 10 0 59372 72000.00000 0 14158613.745 -5859602.672 20425739.711 10 0 59372 72900.00000 0 12924889.204 -3576362.530 21731011.558 10 0 59372 73800.00000 0 11810067.592 -1084832.997 22615627.724 10 0 59372 74700.00000 0 10854696.539 1559115.083 23062518.438 10 0 59372 75600.00000 0 10089097.719 4292664.912 23063055.109 10 0 59372 76500.00000 0 9532156.097 7048413.118 22617213.419 10 0 59372 77400.00000 0 9190603.392 9756924.045 21733574.855 10 0 59372 78300.00000 0 9058824.970 12349375.195 20429166.582 10 0 59372 79200.00000 0 9119197.979 14760186.204 18729142.145 10 0 59372 80100.00000 0 9342946.819 16929524.038 16666308.194 10 0 59372 81000.00000 0 9691480.706 18805581.894 14280504.987 10 0 59372 81900.00000 0 10118158.129 20346538.072 11617851.111 10 0 59372 82800.00000 0 10570405.027 21522113.681 8729865.476 10 0 59372 83700.00000 0 10992098.530 22314664.210 5672482.116 10 0 59372 84600.00000 0 11326116.427 22719758.958 2504975.637 10 0 59372 85500.00000 0 11516945.091 22746223.270 -711182.609 10 0 59373 0.00000 0 11513235.495 22415640.993 -3913515.835 10 0 59373 900.00000 0 11270198.081 21761336.962 -7039757.887 10 0 59373 1800.00000 0 10751735.110 20826881.985 -10029069.001 10 0 59373 2700.00000 0 9932216.443 19664182.062 -12823228.152 10 0 59373 3600.00000 0 8797823.758 18331232.734 -15367777.019 10 0 59373 4500.00000 0 7347402.592 16889632.934 -17613092.405 10 0 59373 5400.00000 0 5592784.554 15401963.673 -19515365.189 10 0 59373 6300.00000 0 3558563.636 13929142.599 -21037465.704 10 0 59373 7200.00000 0 1281334.130 12527866.704 -22149677.729 10 0 59373 8100.00000 0 -1191579.521 11248251.633 -22830286.127 10 0 59373 9000.00000 0 -3803848.978 10131767.655 -23066006.139 10 0 59373 9900.00000 0 -6492252.749 9209559.681 -22852245.626 10 0 59373 10800.00000 0 -9189083.646 8501222.149 -22193194.997 10 0 59373 11700.00000 0 -11824752.417 8014080.178 -21101743.093 10 0 59373 12600.00000 0 -14330478.595 7743006.668 -19599220.798 10 0 59373 13500.00000 0 -16640956.022 7670782.116 -17714977.717 10 0 59373 14400.00000 0 -18696881.516 7768980.694 -15485800.590 10 0 59373 15300.00000 0 -20447240.962 7999343.729 -12955185.418 10 0 59373 16200.00000 0 -21851257.525 8315580.919 -10172478.221 10 0 59373 17100.00000 0 -22879921.118 8665521.471 -7191902.015 10 0 59373 18000.00000 0 -23517036.040 8993522.627 -4071490.005 10 0 59373 18900.00000 0 -23759744.328 9243032.234 -871946.726 10 0 59373 19800.00000 0 -23618504.638 9359195.817 2344539.763 10 0 59373 20700.00000 0 -23116529.465 9291397.044 5515510.617 10 0 59373 21600.00000 0 -22288706.389 8995623.754 8579449.767 10 0 59373 22500.00000 0 -21180050.534 8436559.487 11476974.469 10 0 59373 23400.00000 0 -19843754.836 7589312.457 14151979.772 10 0 59373 24300.00000 0 -18338921.093 6440709.513 16552715.278 10 0 59373 25200.00000 0 -16728067.537 4990101.044 18632774.228 10 0 59373 26100.00000 0 -15074517.374 3249643.384 20351976.968 10 0 59373 27000.00000 0 -13439776.974 1244046.918 21677133.175 10 0 59373 27900.00000 0 -11881012.231 -990199.932 22582669.668 10 0 59373 28800.00000 0 -10448727.037 -3406099.165 23051113.092 10 0 59373 29700.00000 0 -9184739.110 -5947852.508 23073419.451 10 0 59373 30600.00000 0 -8120535.893 -8552942.174 22649144.995 10 0 59373 31500.00000 0 -7276077.648 -11154498.457 21786455.620 10 0 59373 32400.00000 0 -6659096.458 -13683858.037 20501974.533 10 0 59373 33300.00000 0 -6264919.624 -16073208.921 18820470.572 10 0 59373 34200.00000 0 -6076824.555 -18258214.039 16774392.205 10 0 59373 35100.00000 0 -6066910.418 -20180506.124 14403254.885 10 0 59373 36000.00000 0 -6197450.485 -21789951.239 11752892.047 10 0 59373 36900.00000 0 -6422669.155 -23046587.213 8874582.687 10 0 59373 37800.00000 0 -6690869.640 -23922156.215 5824070.952 10 0 59373 38700.00000 0 -6946823.353 -24401167.017 2660495.447 10 0 59373 39600.00000 0 -7134320.568 -24481441.607 -554751.738 10 0 59373 40500.00000 0 -7198774.554 -24174122.220 -3759214.636 10 0 59373 41400.00000 0 -7089768.514 -23503137.321 -6890588.598 10 0 59373 42300.00000 0 -6763436.589 -22504147.876 -9887936.951 10 0 59373 43200.00000 0 -6184576.605 -21223017.369 -12692884.846 10 0 59373 44100.00000 0 -5328403.272 -19713869.305 -15250766.094 10 0 59373 45000.00000 0 -4181865.534 -18036813.740 -17511699.537 10 0 59373 45900.00000 0 -2744470.101 -16255438.573 -19431572.957 10 0 59373 46800.00000 0 -1028574.097 -14434171.535 -20972914.328 10 0 59373 47700.00000 0 940867.603 -12635624.381 -22105632.505 10 0 59373 48600.00000 0 3127091.586 -10918031.604 -22807612.227 10 0 59373 49500.00000 0 5482820.045 -9332891.866 -23065151.326 10 0 59373 50400.00000 0 7952006.562 -7922911.712 -22873231.236 10 0 59373 51300.00000 0 10471961.102 -6720338.079 -22235615.411 10 0 59373 52200.00000 0 12975765.546 -5745749.450 -21164773.682 10 0 59373 53100.00000 0 15394878.642 -5007355.908 -19681634.217 10 0 59373 54000.00000 0 17661821.221 -4500836.491 -17815168.185 10 0 59373 54900.00000 0 19712829.117 -4209719.333 -15601815.652 10 0 59373 55800.00000 0 21490362.481 -4106286.929 -13084764.536 10 0 59373 56700.00000 0 22945366.476 -4152966.429 -10313097.402 10 0 59373 57600.00000 0 24039188.895 -4304144.315 -7340823.556 10 0 59373 58500.00000 0 24745074.906 -4508326.833 -4225816.343 10 0 59373 59400.00000 0 25049177.259 -4710553.056 -1028677.306 10 0 59373 60300.00000 0 24951040.892 -4854956.978 2188449.751 10 0 59373 61200.00000 0 24463543.205 -4887369.098 5363090.832 10 0 59373 62100.00000 0 23612294.301 -4757846.705 8433655.802 10 0 59373 63000.00000 0 22434524.095 -4423025.541 11340630.620 10 0 59373 63900.00000 0 20977504.577 -3848193.574 14027724.585 10 0 59373 64800.00000 0 19296574.630 -3008999.674 16442950.904 10 0 59373 65700.00000 0 17452850.838 -1892725.666 18539620.558 10 0 59373 66600.00000 0 15510720.339 -499068.704 20277231.341 10 0 59373 67500.00000 0 13535220.084 1159598.640 21622236.377 10 0 59373 68400.00000 0 11589410.928 3058501.557 22548678.783 10 0 59373 69300.00000 0 9731854.763 5161258.500 23038681.666 10 0 59373 70200.00000 0 8014298.055 7421166.777 23082785.267 10 0 59373 71100.00000 0 6479656.440 9782926.139 22680125.669 10 0 59373 72000.00000 0 5160382.579 12184730.320 21838452.066 10 0 59373 72900.00000 0 4077283.675 14560641.643 20573982.264 10 0 59373 73800.00000 0 3238836.706 16843152.090 18911098.635 10 0 59373 74700.00000 0 2641029.250 18965826.266 16881889.454 10 0 59373 75600.00000 0 2267732.168 20865918.100 14525543.143 10 0 59373 76500.00000 0 2091588.661 22486853.602 11887605.594 10 0 59373 77400.00000 0 2075382.812 23780476.881 9019113.372 10 0 59373 78300.00000 0 2173830.685 24708965.899 5975618.116 10 0 59373 79200.00000 0 2335719.136 25246337.479 2816119.753 10 0 59373 80100.00000 0 2506302.589 25379477.712 -398071.582 10 0 59373 81000.00000 0 2629856.657 25108653.390 -3604523.335 10 0 59373 81900.00000 0 2652280.338 24447481.630 -6740895.036 10 0 59373 82800.00000 0 2523635.969 23422357.562 -9746155.454 10 0 59373 83700.00000 0 2200518.149 22071362.896 -12561778.083 10 0 59373 84600.00000 0 1648149.738 20442700.223 -15132890.802 10 0 59373 85500.00000 0 842114.319 18592718.248 -17409356.174 10 0 59374 0.00000 0 -230350.256 16583610.656 -19346760.276 10 0 59374 900.00000 0 -1569554.555 14480885.287 -20907289.971 10 0 59374 1800.00000 0 -3163090.861 12350710.201 -22060480.116 10 0 59374 2700.00000 0 -4986112.464 10257248.841 -22783816.023 10 0 59374 3600.00000 0 -7002146.640 8260095.896 -23063178.552 10 0 59374 4500.00000 0 -9164409.733 6411922.518 -22893122.834 10 0 59374 5400.00000 0 -11417569.435 4756429.413 -22276985.110 10 0 59374 6300.00000 0 -13699880.990 3326693.643 -21226815.551 10 0 59374 7200.00000 0 -15945607.762 2143977.959 -19763138.515 10 0 59374 8100.00000 0 -18087624.655 1217051.695 -17914545.229 10 0 59374 9000.00000 0 -20060094.964 542050.379 -15717127.220 10 0 59374 9900.00000 0 -21801108.083 102878.292 -13213762.172 10 0 59374 10800.00000 0 -23255167.251 -127865.017 -10453266.845 10 0 59374 11700.00000 0 -24375422.918 -187475.484 -7489434.376 10 0 59374 12600.00000 0 -25125558.218 -121314.183 -4379975.747 10 0 59374 13500.00000 0 -25481247.952 19364.629 -1185387.000 10 0 59374 14400.00000 0 -25431130.754 179833.459 2032234.811 10 0 59374 15300.00000 0 -24977254.809 304455.609 5210403.000 10 0 59374 16200.00000 0 -24134979.847 339283.784 8287455.796 10 0 59374 17100.00000 0 -22932341.067 234582.754 11203750.232 10 0 59374 18000.00000 0 -21408903.101 -52830.691 13902812.133 10 0 59374 18900.00000 0 -19614153.283 -557529.100 16332420.469 10 0 59374 19800.00000 0 -17605502.271 -1303783.391 18445605.907 10 0 59374 20700.00000 0 -15445975.979 -2304310.169 20201545.375 10 0 59374 21600.00000 0 -13201694.934 -3559509.546 21566336.808 10 0 59374 22500.00000 0 -10939245.351 -5057225.215 22513640.649 10 0 59374 23400.00000 0 -8723050.179 -6773036.958 23025177.116 10 0 59374 24300.00000 0 -6612847.834 -8671073.979 23091070.985 10 0 59374 25200.00000 0 -4661381.548 -10705316.226 22710038.121 10 0 59374 26100.00000 0 -2912393.531 -12821330.922 21889410.660 10 0 59374 27000.00000 0 -1399005.543 -14958373.810 20645000.363 10 0 59374 27900.00000 0 -142551.698 -17051769.674 19000802.222 10 0 59374 28800.00000 0 848088.927 -19035474.924 16988543.156 10 0 59374 29700.00000 0 1576632.809 -20844717.320 14647083.148 10 0 59374 30600.00000 0 2058999.991 -22418604.242 12021678.891 10 0 59374 31500.00000 0 2322405.879 -23702591.507 9163122.654 10 0 59374 32400.00000 0 2403974.618 -24650709.977 6126771.514 10 0 59374 33300.00000 0 2348931.883 -25227456.533 2971484.503 10 0 59374 34200.00000 0 2208452.769 -25409269.405 -241512.542 10 0 59374 35100.00000 0 2037255.407 -25185524.737 -3449812.939 10 0 59374 36000.00000 0 1891042.099 -24559011.053 -6591042.955 10 0 59374 36900.00000 0 1823896.670 -23545860.004 -9604079.427 10 0 59374 37800.00000 0 1885749.160 -22174934.731 -12430246.888 10 0 59374 38700.00000 0 2120016.516 -20486700.119 -15014469.985 10 0 59374 39600.00000 0 2561520.807 -18531621.333 -17306357.644 10 0 59374 40500.00000 0 3234774.961 -16368157.186 -19261196.802 10 0 59374 41400.00000 0 4152710.530 -14060432.176 -20840835.345 10 0 59374 42300.00000 0 5315903.191 -11675684.900 -22014436.097 10 0 59374 43200.00000 0 6712330.523 -9281599.991 -22759086.486 10 0 59374 44100.00000 0 8317673.948 -6943635.704 -23060251.451 10 0 59374 45000.00000 0 10096153.310 -4722459.461 -22912060.401 10 0 59374 45900.00000 0 12001860.025 -2671598.893 -22317422.476 10 0 59374 46800.00000 0 13980533.264 -835406.670 -21287967.836 10 0 59374 47700.00000 0 15971704.761 752575.998 -19843816.244 10 0 59374 48600.00000 0 17911122.060 2070789.417 -18013177.770 10 0 59374 49500.00000 0 19733348.172 3110311.217 -15831793.752 10 0 59374 50400.00000 0 21374427.969 3874971.949 -13342229.571 10 0 59374 51300.00000 0 22774508.913 4380927.625 -10593033.689 10 0 59374 52200.00000 0 23880305.723 4655709.443 -7637780.195 10 0 59374 53100.00000 0 24647305.218 4736793.055 -4534014.510 10 0 59374 54000.00000 0 25041618.917 4669750.115 -1342123.753 10 0 59374 54900.00000 0 25041405.996 4506062.335 1875845.309 10 0 59374 55800.00000 0 24637807.604 4300692.244 5057396.802 10 0 59374 56700.00000 0 23835354.408 4109514.797 8140800.688 10 0 59374 57600.00000 0 22651831.430 3986719.343 11066288.174 10 0 59374 58500.00000 0 21117607.133 3982292.171 13777204.395 10 0 59374 59400.00000 0 19274455.949 4139685.886 16221096.470 10 0 59374 60300.00000 0 17173924.323 4493773.561 18350716.741 10 0 59374 61200.00000 0 14875308.973 5069173.218 20124922.853 10 0 59374 62100.00000 0 12443331.579 5879012.419 21509458.742 10 0 59374 63000.00000 0 9945606.115 6924184.380 22477602.953 10 0 59374 63900.00000 0 7450003.083 8193126.488 23010673.199 10 0 59374 64800.00000 0 5022018.605 9662130.684 23098378.752 10 0 59374 65700.00000 0 2722255.719 11296173.410 22739014.802 10 0 59374 66600.00000 0 604120.551 13050231.543 21939495.540 10 0 59374 67500.00000 0 -1288172.986 14871030.932 20715225.360 10 0 59374 68400.00000 0 -2921208.814 16699156.454 19089810.169 10 0 59374 69300.00000 0 -4273519.212 18471437.408 17094613.461 10 0 59374 70200.00000 0 -5336233.344 20123510.571 14768164.430 10 0 59374 71100.00000 0 -6113197.305 21592455.465 12155428.017 10 0 59374 72000.00000 0 -6620560.771 22819392.714 9306949.482 10 0 59374 72900.00000 0 -6885847.438 23751937.407 6277888.548 10 0 59374 73800.00000 0 -6946547.921 24346404.607 3126960.513 10 0 59374 74700.00000 0 -6848293.901 24569673.833 -84695.916 10 0 59374 75600.00000 0 -6642690.189 24400633.115 -3294702.703 10 0 59374 76500.00000 0 -6384896.183 23831140.331 -6440655.528 10 0 59374 77400.00000 0 -6131059.207 22866459.623 -9461341.816 10 0 59374 78300.00000 0 -5935708.953 21525152.683 -12297939.442 10 0 59374 79200.00000 0 -5849224.353 19838427.645 -14895171.884 10 0 59374 80100.00000 0 -5915481.456 17848971.496 -17202396.213 10 0 59374 81000.00000 0 -6169783.462 15609313.793 -19174601.685 10 0 59374 81900.00000 0 -6637162.259 13179789.551 -20773298.488 10 0 59374 82800.00000 0 -7331124.994 10626186.329 -21967278.334 10 0 59374 83700.00000 0 -8252900.358 8017173.970 -22733231.411 10 0 59374 84600.00000 0 -9391217.885 5421624.678 -23056207.100 10 0 59374 85500.00000 0 -10722630.760 2905935.842 -22929909.115 99